Tiempo cada hora Muscatine

Hoy, 21 Octubre, Miércoles

Tiempo Temperatura Precipitaciones Viento Presión Humedad
00:00 +3°C° 0 mm 4 mps 746 mmHg 86%
01:00 +3°C° 0 mm 4 mps 746 mmHg 86%
02:00 +2°C° 0 mm 3 mps 746 mmHg 86%
03:00 +2°C° 0 mm 3 mps 747 mmHg 87%
04:00 +1°C° 0 mm 3 mps 747 mmHg 87%
05:00 +2°C° 0 mm 2 mps 748 mmHg 88%
06:00 +2°C° 0 mm 2 mps 749 mmHg 89%
07:00 +3°C° 0 mm 2 mps 749 mmHg 82%
08:00 +6°C° 0 mm 1 mps 749 mmHg 75%
09:00 +8°C° 0 mm 1 mps 749 mmHg 68%
10:00 +9°C° 0 mm 1 mps 749 mmHg 62%
11:00 +11°C° 0 mm 1 mps 749 mmHg 56%
12:00 +12°C° 0 mm 0 mps 749 mmHg 50%
13:00 +13°C° 0 mm 1 mps 749 mmHg 47%
14:00 +14°C° 0 mm 1 mps 749 mmHg 44%
15:00 +14°C° 0 mm 1 mps 748 mmHg 41%
16:00 +13°C° 0 mm 2 mps 748 mmHg 45%
17:00 +13°C° 0 mm 2 mps 748 mmHg 49%
18:00 +11°C° 0 mm 3 mps 748 mmHg 52%
19:00 +10°C° 0.3 mm 3 mps 748 mmHg 58%
20:00 +10°C° 0.3 mm 3 mps 748 mmHg 64%
21:00 +8°C° 0.3 mm 4 mps 748 mmHg 69%
22:00 +8°C° 0.8 mm 4 mps 748 mmHg 74%
23:00 +7°C° 0.8 mm 5 mps 748 mmHg 79%

Mañana, 22 Octubre, Jueves

Tiempo Temperatura Precipitaciones Viento Presión Humedad
00:00 +7°C° 0.8 mm 5 mps 747 mmHg 85%
01:00 +7°C° 2.2 mm 6 mps 747 mmHg 87%
02:00 +7°C° 2.2 mm 6 mps 746 mmHg 89%
03:00 +7°C° 2.2 mm 6 mps 746 mmHg 91%
04:00 +7°C° 0.5 mm 6 mps 745 mmHg 91%
05:00 +8°C° 0.5 mm 5 mps 745 mmHg 91%
06:00 +8°C° 0.5 mm 4 mps 745 mmHg 92%
07:00 +10°C° 0.5 mm 4 mps 744 mmHg 93%
08:00 +12°C° 0.5 mm 4 mps 744 mmHg 95%
09:00 +13°C° 0.5 mm 4 mps 744 mmHg 96%
10:00 +17°C° 0.1 mm 4 mps 743 mmHg 90%
11:00 +20°C° 0.1 mm 4 mps 743 mmHg 84%
12:00 +23°C° 0.1 mm 5 mps 742 mmHg 77%
13:00 +23°C° 0 mm 5 mps 741 mmHg 76%
14:00 +25°C° 0 mm 5 mps 741 mmHg 74%
15:00 +25°C° 0 mm 5 mps 740 mmHg 72%
16:00 +25°C° 0 mm 5 mps 740 mmHg 72%
17:00 +23°C° 0 mm 5 mps 739 mmHg 72%
18:00 +23°C° 0 mm 5 mps 739 mmHg 72%
19:00 +22°C° 0.1 mm 6 mps 739 mmHg 73%
20:00 +22°C° 0.1 mm 6 mps 740 mmHg 74%
21:00 +22°C° 0.1 mm 7 mps 740 mmHg 75%
22:00 +21°C° 0.6 mm 7 mps 740 mmHg 78%
23:00 +21°C° 0.6 mm 6 mps 740 mmHg 81%

Pasado mañana, 23 Octubre, Viernes

Tiempo Temperatura Precipitaciones Viento Presión Humedad
00:00 +20°C° 0.6 mm 6 mps 740 mmHg 84%
01:00 +16°C° 0.4 mm 6 mps 741 mmHg 85%
02:00 +13°C° 0.4 mm 5 mps 741 mmHg 87%
03:00 +9°C° 0.4 mm 5 mps 742 mmHg 88%
04:00 +8°C° 0.2 mm 6 mps 743 mmHg 87%
05:00 +7°C° 0.2 mm 6 mps 743 mmHg 86%
06:00 +5°C° 0.2 mm 7 mps 744 mmHg 86%
07:00 +4°C° 0.1 mm 7 mps 745 mmHg 85%
08:00 +4°C° 0.1 mm 7 mps 746 mmHg 83%
09:00 +4°C° 0.1 mm 7 mps 747 mmHg 82%
10:00 +4°C° 0 mm 7 mps 748 mmHg 79%
11:00 +4°C° 0 mm 7 mps 748 mmHg 76%
12:00 +5°C° 0 mm 7 mps 749 mmHg 73%
13:00 +5°C° 0 mm 7 mps 749 mmHg 71%
14:00 +5°C° 0 mm 7 mps 749 mmHg 68%
15:00 +5°C° 0 mm 7 mps 749 mmHg 66%
16:00 +4°C° 0 mm 7 mps 750 mmHg 67%
17:00 +4°C° 0 mm 6 mps 750 mmHg 68%
18:00 +3°C° 0 mm 6 mps 751 mmHg 69%
19:00 +3°C° 0 mm 6 mps 751 mmHg 69%
20:00 +2°C° 0 mm 5 mps 752 mmHg 69%
21:00 +2°C° 0 mm 5 mps 752 mmHg 70%
22:00 +1°C° 0 mm 5 mps 752 mmHg 72%
23:00 +1°C° 0 mm 4 mps 752 mmHg 74%

24 Octubre, Sábado

Tiempo Temperatura Precipitaciones Viento Presión Humedad
00:00 0°C° 0 mm 4 mps 752 mmHg 76%
01:00 0°C° 0 mm 4 mps 752 mmHg 77%
02:00 -1°C° 0 mm 4 mps 753 mmHg 79%
03:00 -1°C° 0 mm 4 mps 753 mmHg 81%
04:00 -2°C° 0 mm 4 mps 753 mmHg 83%
05:00 -3°C° 0 mm 4 mps 753 mmHg 84%
06:00 -2°C° 0 mm 3 mps 753 mmHg 86%
07:00 -1°C° 0 mm 3 mps 753 mmHg 80%
08:00 -1°C° 0 mm 4 mps 753 mmHg 74%
09:00 0°C° 0 mm 4 mps 753 mmHg 68%
10:00 +3°C° 0 mm 4 mps 752 mmHg 61%
11:00 +4°C° 0 mm 4 mps 751 mmHg 54%
12:00 +6°C° 0 mm 4 mps 751 mmHg 47%
13:00 +6°C° 0 mm 4 mps 750 mmHg 47%
14:00 +7°C° 0 mm 4 mps 749 mmHg 47%
15:00 +7°C° 0 mm 4 mps 749 mmHg 46%
16:00 +6°C° 0 mm 4 mps 749 mmHg 50%
17:00 +5°C° 0 mm 4 mps 749 mmHg 54%
18:00 +4°C° 0 mm 4 mps 748 mmHg 57%
19:00 +4°C° 0 mm 4 mps 749 mmHg 58%
20:00 +4°C° 0 mm 4 mps 749 mmHg 59%
21:00 +3°C° 0 mm 5 mps 749 mmHg 59%
22:00 +3°C° 0 mm 5 mps 749 mmHg 62%
23:00 +3°C° 0 mm 5 mps 749 mmHg 65%

25 Octubre, Domingo

Tiempo Temperatura Precipitaciones Viento Presión Humedad
00:00 +3°C° 0 mm 5 mps 748 mmHg 68%
01:00 +3°C° 0 mm 5 mps 748 mmHg 70%
02:00 +3°C° 0 mm 5 mps 748 mmHg 72%
03:00 +3°C° 0 mm 6 mps 748 mmHg 73%
04:00 +3°C° 0 mm 5 mps 748 mmHg 74%
05:00 +3°C° 0 mm 5 mps 748 mmHg 75%
06:00 +3°C° 0 mm 5 mps 748 mmHg 76%
07:00 +3°C° 0 mm 5 mps 748 mmHg 76%
08:00 +5°C° 0 mm 5 mps 748 mmHg 76%
09:00 +5°C° 0 mm 5 mps 748 mmHg 76%
10:00 +5°C° 0.4 mm 5 mps 747 mmHg 79%
11:00 +3°C° 0.4 mm 5 mps 747 mmHg 82%
12:00 +3°C° 0.4 mm 5 mps 747 mmHg 85%
13:00 +3°C° 0.7 mm 5 mps 746 mmHg 87%
14:00 +3°C° 0.7 mm 5 mps 746 mmHg 89%
15:00 +3°C° 0.7 mm 5 mps 746 mmHg 92%
16:00 +3°C° 0.2 mm 5 mps 746 mmHg 92%
17:00 +3°C° 0.2 mm 5 mps 746 mmHg 92%
18:00 +2°C° 0.2 mm 5 mps 746 mmHg 93%
19:00 +2°C° 0.1 mm 5 mps 746 mmHg 93%
20:00 +2°C° 0.1 mm 5 mps 746 mmHg 93%
21:00 +2°C° 0.1 mm 5 mps 747 mmHg 94%
22:00 +2°C° 0.1 mm 5 mps 746 mmHg 93%
23:00 +2°C° 0.1 mm 5 mps 746 mmHg 92%

26 Octubre, Lunes

Tiempo Temperatura Precipitaciones Viento Presión Humedad
00:00 +2°C° 0.1 mm 5 mps 746 mmHg 91%
01:00 +2°C° 0.2 mm 5 mps 746 mmHg 92%
02:00 +2°C° 0.2 mm 5 mps 746 mmHg 92%
03:00 +2°C° 0.2 mm 5 mps 746 mmHg 93%
04:00 +2°C° 0.3 mm 5 mps 746 mmHg 93%
05:00 +2°C° 0.3 mm 6 mps 746 mmHg 94%
06:00 +1°C° 0.3 mm 6 mps 747 mmHg 95%
07:00 +1°C° 0.6 mm 6 mps 747 mmHg 95%
08:00 -1°C° 0.6 mm 7 mps 747 mmHg 95%
09:00 -1°C° 0.6 mm 7 mps 747 mmHg 95%
10:00 -2°C° 0.6 mm 7 mps 747 mmHg 95%
11:00 -2°C° 0.6 mm 7 mps 747 mmHg 95%
12:00 -2°C° 0.6 mm 6 mps 747 mmHg 95%
13:00 -2°C° 0.6 mm 6 mps 747 mmHg 96%
14:00 -2°C° 0.6 mm 7 mps 747 mmHg 96%
15:00 -2°C° 0.6 mm 7 mps 747 mmHg 96%
16:00 -3°C° 0.5 mm 7 mps 747 mmHg 96%
17:00 -3°C° 0.5 mm 7 mps 748 mmHg 95%
18:00 -3°C° 0.5 mm 6 mps 748 mmHg 95%
19:00 -4°C° 0.1 mm 6 mps 748 mmHg 94%
20:00 -4°C° 0.1 mm 6 mps 749 mmHg 92%
21:00 -5°C° 0.1 mm 6 mps 749 mmHg 90%
22:00 -6°C° 0 mm 6 mps 749 mmHg 90%
23:00 -6°C° 0 mm 6 mps 750 mmHg 90%

27 Octubre, Martes

Tiempo Temperatura Precipitaciones Viento Presión Humedad
00:00 -7°C° 0 mm 5 mps 750 mmHg 90%
01:00 -8°C° 0 mm 5 mps 750 mmHg 90%
02:00 -10°C° 0 mm 5 mps 751 mmHg 90%
03:00 -11°C° 0 mm 5 mps 751 mmHg 90%
04:00 -12°C° 0 mm 5 mps 751 mmHg 90%
05:00 -11°C° 0 mm 4 mps 752 mmHg 90%
06:00 -12°C° 0 mm 4 mps 752 mmHg 90%
07:00 -12°C° 0 mm 4 mps 753 mmHg 87%
08:00 -11°C° 0 mm 4 mps 753 mmHg 84%
09:00 -10°C° 0 mm 4 mps 753 mmHg 82%
10:00 -9°C° 0 mm 4 mps 753 mmHg 78%
11:00 -7°C° 0 mm 4 mps 753 mmHg 75%
12:00 -5°C° 0 mm 4 mps 753 mmHg 71%
13:00 -4°C° 0 mm 4 mps 752 mmHg 71%
14:00 -4°C° 0 mm 4 mps 752 mmHg 71%
15:00 -4°C° 0 mm 4 mps 752 mmHg 71%
16:00 -5°C° 0 mm 4 mps 752 mmHg 77%
17:00 -6°C° 0 mm 3 mps 751 mmHg 83%
18:00 -8°C° 0 mm 3 mps 751 mmHg 89%
19:00 -8°C° 0 mm 3 mps 751 mmHg 89%
20:00 -8°C° 0 mm 3 mps 751 mmHg 90%
21:00 -8°C° 0 mm 3 mps 751 mmHg 90%
22:00 -8°C° 0 mm 3 mps 751 mmHg 89%
23:00 -9°C° 0 mm 3 mps 751 mmHg 88%
Mostrar más

Necesitamos Su Consentimiento

Meteoprog y nuestros Proveedores de Servicios pueden almacenar y acceder a sus datos personales como cookies, identificadores de dispositivo u otras tecnologías similares de su dispositivo y procesar dichos datos para personalizar contenido y anuncios, además de ofrecer funciones de redes sociales y analizar el tráfico.

  • Almacenar y/o acceder a información en su dispositivo

    Se puede almacenar o acceder a cookies, identificadores de dispositivo u otra información de su dispositivo para los fines anteriormente indicados.

  • Anuncios y contenido personalizados, medición de anuncios y contenido, percepciones del público, y desarrollo de productos

    Los anuncios y el contenido pueden personalizarse en base a su perfil. Se pueden añadir más datos para personalizar mejor los anuncios y contenidos. Se puede medir el rendimiento de los anuncios y contenidos. Se puede obtener la percepción sobre el público que ha visto los anuncios y contenidos. Dichos datos pueden usarse para desarrollar o mejorar la experiencia del usuario, sistemas y software.

Al hacer clic en ‘Estoy De Acuerdo’ usted permitirá el uso de las cookies, identificadores de dispositivo, balizas web u otras tecnologías similares indicadas. Su configuración puede cambiarse desde el navegador de su dispositivo.

Para ciertos fines, los intereses legítimos pueden ser considerados por encima del consentimiento. Puede leer más sobre ello en nuestra Política de Privacidad y Cookies.